Regional Weather Roundup
Issued by NWS

Home | Current Version | Previous Version | Text Only | Print | Product List | Glossary On
Versions: 1 2 3 4 5 6 7 8 9 10 11 12 13 14 15 16 17 18 19 20 21 22 23 24 25 26 27 28 29 30 31 32 33 34 35 36 37 38 39 40 41 42 43 44 45 46 47 48 49 50
182
ASUS45 KSLC 042210
RWRUT

UTAH REGIONAL WEATHER ROUNDUP
NATIONAL WEATHER SERVICE SALT LAKE CITY UT
300 PM MST SUN DEC 04 2016

UTZ001>011-023>025-042300-

NORTHERN UTAH

CITY           SKY/WX    TMP DP  RH WIND       PRES   REMARKS
BRIGHAM CITY     N/A     39  22  51 NW3       29.99F
HILL AFB       CLOUDY    37  19  46 S14       29.96F WCI  29
LOGAN          CLOUDY   N/A N/A N/A N9        29.94F
OGDEN          CLOUDY    38  21  50 S5        29.97F WCI  34
SALT LAKE CITY CLOUDY    42  20  41 SE13      29.97F
TOOELE VALLEY  CLOUDY    37  27  65 SE8       29.98F WCI  31
WENDOVER       MOSUNNY   37  16  41 E5        29.97F WCI  34
HEBER CITY     CLOUDY    32  19  59 CALM      29.98F
WEST JORDAN    CLOUDY    39  26  59 S21G26    29.98F WCI  29

$$

UTZ011>015-024>027-042300-

CENTRAL/NORTHEAST UTAH

CITY           SKY/WX    TMP DP  RH WIND       PRES   REMARKS
PROVO AIRPORT  CLOUDY    37  23  56 CALM      30.04F
MOAB/CANYONLAN SUNNY     42  16  34 NE5       30.08F
DELTA          SUNNY     43  14  31 CALM      30.02F
PRICE          MOSUNNY   36  13  38 S6        30.06F WCI  31
ROOSEVELT      CLOUDY    36  14  41 E3        30.04F
VERNAL         CLOUDY    34  15  46 CALM      30.02F

$$

UTZ013>016-019>022-027-042300-

SOUTHERN UTAH

CITY           SKY/WX    TMP DP  RH WIND       PRES   REMARKS
BRYCE CANYON   SUNNY     41  15  35 SE10      30.09
CEDAR CITY     SUNNY     50  15  24 SW15      30.03F
MILFORD        SUNNY     50   7  17 S17       30.01F
ST GEORGE      MOCLDY    52  18  25 CALM      30.09F
HANKSVILLE     SUNNY     41  14  33 CALM      30.11F
BLANDING       SUNNY     40  12  32 S5        30.17F

$$

REGIONAL REPORTS     COLORADO/ARIZONA

CITY           SKY/WX    TMP DP  RH WIND       PRES   REMARKS
CRAIG, CO      CLOUDY    37  13  37 NE6       29.99F WCI  32
GRAND JUNCTION SUNNY     40  16  37 CALM      30.09F
RIFLE, CO      CLOUDY    37  12  35 CALM      30.08F
MONTROSE, CO   SUNNY     40  11  30 CALM      30.09F
CORTEZ, CO     SUNNY     39  18  42 CALM      30.11F
COLORADO CITY    N/A     52  10  19 CALM      30.11F
PAGE, AZ       SUNNY     46  11  24 NE3       30.09F
GRAND CANYON   SUNNY     50  18  28 W5        30.12F
KINGMAN, AZ    SUNNY     60   5  11 NE3       30.05F
FLAGSTAFF, AZ  SUNNY     51   7  16 VRB3      30.10F

$$

REGIONAL REPORTS    NEVADA/IDAHO/WYOMING

CITY           SKY/WX    TMP DP  RH WIND       PRES   REMARKS
LAS VEGAS, NV  MOSUNNY   59  12  15 E5        30.04F
ELY, NY        SUNNY     52  15  23 SW8       30.03F
ELKO, NV       PTSUNNY   42  21  43 SW7       29.97F
POCATELLO, ID  LGT SNOW  35  29  78 S20       29.87S VSB 1   WCI  24
BURLEY, ID     LGT RAIN  40  32  73 S20       29.85F WCI  30
FORT BRIDGER,    N/A     37  18  46 W24G33    29.93F WCI  26
EVANSTON, WY   CLOUDY    36  15  42 SW23      29.92F WCI  24
ROCK SPRINGS,  CLOUDY    35  15  44 SW17      29.89F WCI  25
KEMMERER, WY     N/A     32  18  55 SW16G22   29.89F WCI  21

$$




USA.gov is the U.S. government's official web portal to all federal, state and local government web resources and services.